Regional Weather Roundup
Issued by NWS Cleveland, OH

Home | Current Version | Previous Version | Text Only | Print | Product List | Glossary Off
Versions: 1 2 3 4 5 6 7 8 9 10 11 12 13 14 15 16 17 18 19 20 21 22 23 24 25 26 27 28 29 30 31 32 33 34 35 36 37 38 39 40 41 42 43 44 45 46 47 48 49 50

000
ASUS41 KCLE 282202
RWRCLE
OHIO REGIONAL WEATHER ROUNDUP
NATIONAL WEATHER SERVICE CLEVELAND, OH
600 PM EDT THU AUG 28 2014

NOTE: "FAIR" INDICATES FEW OR NO CLOUDS BELOW 12,000 FEET WITH NO
SIGNIFICANT WEATHER AND/OR OBSTRUCTIONS TO VISIBILITY.

OHZ001>008-015>018-024>027-034-035-043-044-282300-
   NORTHWEST OHIO

CITY           SKY/WX    TMP DP  RH WIND       PRES   REMARKS
DEFIANCE       MOSUNNY   78  59  51 E9        30.09F
FINDLAY        MOSUNNY   77  58  51 NE10      30.09S
TOLEDO EXPRESS MOSUNNY   73  57  57 E6        30.10S
TOLEDO EXEC    SUNNY     72  55  55 E7        30.12S
LIMA           MOSUNNY   76  62  62 NE6       30.09F
$$

OHZ009>014-019>023-028>033-038-089-282300-
   NORTHEAST OHIO

CITY           SKY/WX    TMP DP  RH WIND       PRES   REMARKS
CLE-HOPKINS    MOSUNNY   68  52  56 NE8       30.15S
CLE-LAKEFRONT  PTSUNNY   68  51  54 NE6       30.13S
CUY CO. ARPT   NOT AVBL
LORAIN-ELYRIA  SUNNY     73  50  44 NE6       30.13F
ASHTABULA      SUNNY     67  51  56 N5        30.13S
AKRON-CANTON   MOSUNNY   72  52  49 N9        30.11S
WOOSTER        SUNNY     72  56  57 N9        30.12F
MANSFIELD      SUNNY     72  55  55 N8        30.12F
YOUNGSTOWN     MOSUNNY   70  51  51 N5        30.11S
$$

OHZ042-051>053-060>062-070>072-077>081-282300-
  SOUTHWEST OHIO

CITY           SKY/WX    TMP DP  RH WIND       PRES   REMARKS
CINC-COVINGTON PTSUNNY   84  64  50 E9        30.04F
CINC-LUNKEN    MOSUNNY   83  63  50 NE3       30.03F
HAMILTON       SUNNY     82  65  56 NE6       30.05F
DAYTON         PTSUNNY   80  62  54 E9        30.08F
WRIGHT-PAT AFB MOSUNNY   80  62  52 E8        30.07F
DAYTON GENERAL SUNNY     79  63  57 E5        30.06F
WILMINGTON     SUNNY     78  61  55 NE9       30.07S
$$

OHZ036-037-039>041-045>050-054>059-063>069-073>076-082>088-282300-
  CENTRAL AND SOUTHEAST OHIO

CITY           SKY/WX    TMP DP  RH WIND       PRES   REMARKS
COLUMBUS       MOSUNNY   79  57  46 E3        30.08S
OSU AIRPORT    SUNNY     77  58  51 N6        30.08F
BOLTON FIELD   MOSUNNY   79  61  53 CALM      30.08F
RICKENBACK AFB NOT AVBL
NEWARK         SUNNY     76  56  49 VRB5      30.09S
MARION         SUNNY     75  57  53 E7        30.10F
LANCASTER      SUNNY     78  59  51 NE3       30.09S
ZANESVILLE     SUNNY     75  56  51 N6        30.09F
NEW PHILLY     SUNNY     74  57  55 N9        30.10F
$$



USA.gov is the U.S. government's official web portal to all federal, state and local government web resources and services.